Wind_Speed
45 44 42 40 39 38 36 35 33 33 31 30 30 29 28 27 27 27 26 26 26 26 25 25 25 26 26 27 27 28 28 28 29 29 29 30 30 31 31 31 33 34 35
48 46 44 42 41 40 38 37 36 35 34 33 32 31 30 30 30 29 28 28 28 28 27 27 27 27 28 28 29 29 30 30 30 30 30 31 32 32 32 32 33 34 36
50 49 47 45 43 42 41 40 38 37 36 35 34 33 33 33 32 31 30 30 30 30 29 29 29 29 29 30 31 31 31 31 31 31 31 32 32 32 32 33 34 35 37
52 52 50 48 46 45 43 42 41 39 39 38 37 36 36 35 34 33 33 32 31 31 31 31 31 31 31 31 31 31 31 32 32 32 32 33 33 32 32 34 35 36 38
54 53 51 50 49 47 46 45 43 42 41 40 40 39 38 38 36 35 34 34 33 32 32 32 32 33 33 33 32 32 32 32 32 32 32 33 33 32 33 35 37 38 39
56 56 54 52 50 49 49 48 46 45 44 43 42 41 39 39 37 36 35 35 35 34 34 33 34 33 33 33 33 32 32 32 32 33 33 32 32 33 34 36 38 40 41
55 56 56 55 54 52 51 50 49 47 45 44 42 41 40 39 38 37 37 36 35 35 35 35 35 34 34 33 33 33 32 32 33 33 32 32 33 34 36 38 39 41 42
53 54 54 55 55 54 53 52 49 48 46 44 43 43 42 41 40 39 38 38 37 36 36 35 35 35 33 33 33 33 33 33 33 32 32 33 35 36 37 39 40 42 42
51 51 51 52 52 51 52 51 49 48 47 46 45 44 43 42 42 42 40 40 40 38 37 36 35 34 34 33 33 34 34 34 33 33 33 35 36 37 39 40 41 42 43
51 51 51 50 51 51 51 51 50 49 48 47 46 45 45 45 44 42 41 41 40 38 37 36 36 35 35 35 35 35 35 35 34 34 35 36 37 39 40 41 42 43 44
50 52 51 50 50 51 50 50 51 51 50 49 48 46 46 45 44 42 40 40 39 38 37 37 37 37 37 37 36 36 36 35 35 35 36 37 38 39 41 42 44 44 45
49 51 50 48 48 49 50 50 49 49 49 49 48 47 46 44 43 42 41 39 39 38 38 38 39 39 39 38 38 37 37 36 36 37 37 38 40 41 42 44 45 45 46
42 43 43 44 45 47 49 49 49 49 49 48 47 46 44 43 43 42 41 40 40 40 40 40 40 40 40 39 39 38 38 38 37 38 39 40 41 42 44 45 46 46 46
41 43 44 45 46 47 48 50 51 50 49 47 47 46 45 44 44 43 42 42 42 43 43 43 42 43 42 40 39 39 39 38 39 40 40 41 42 44 45 46 47 47 46
38 40 42 43 45 45 46 48 50 50 49 49 48 47 47 46 45 44 44 45 45 46 46 46 45 44 43 41 40 40 40 40 40 40 41 43 44 45 46 46 46 46 46
37 37 40 41 43 45 46 47 47 48 49 49 49 50 50 49 49 49 48 48 48 48 48 47 46 45 42 40 40 41 41 41 41 41 43 44 45 46 46 46 46 46 46
38 39 39 40 41 42 44 44 44 47 48 49 49 50 50 50 51 51 51 50 50 49 48 48 47 44 43 42 42 41 42 42 42 43 44 44 45 45 45 45 45 45 45
34 37 39 40 42 43 44 44 45 46 47 47 49 50 51 51 52 52 52 51 50 49 48 47 45 45 45 44 43 43 43 43 43 43 44 44 44 45 45 45 44 44 43
34 35 38 41 42 44 45 45 45 46 48 49 50 50 51 52 51 51 51 51 49 48 48 46 45 45 45 45 45 44 43 43 43 43 44 44 44 44 44 44 43 42 41
35 38 39 41 43 45 47 48 49 49 50 50 51 52 52 53 52 51 50 49 48 48 48 47 46 46 46 45 44 43 43 43 43 43 44 44 44 43 44 43 42 40 39
39 40 41 42 44 45 47 49 51 51 51 52 52 52 52 52 51 50 49 49 49 48 48 47 47 46 45 44 43 43 43 44 44 44 45 44 44 43 42 41 40 38 36
43 44 45 45 46 47 48 50 50 50 50 51 50 51 50 50 50 50 50 50 49 49 49 48 48 46 45 45 44 44 44 45 45 45 45 44 43 42 41 40 38 36 34
46 48 49 50 51 51 51 52 53 53 52 51 51 51 51 51 51 51 50 49 49 49 48 49 48 48 47 46 45 45 45 45 45 45 44 43 42 41 39 37 35 34 32
49 50 50 52 53 54 54 55 56 56 55 54 54 53 53 53 53 53 52 52 51 51 50 50 49 50 49 48 47 47 46 46 45 44 43 42 41 39 37 35 34 32 30
53 54 55 56 56 57 57 57 56 56 57 56 56 56 56 55 56 56 55 54 54 53 53 53 52 50 50 49 48 48 46 45 44 44 42 41 39 37 36 34 32 31 29
56 57 58 59 59 58 58 59 57 57 58 58 58 58 58 58 58 58 57 56 56 55 54 53 52 51 50 49 48 47 46 44 44 43 41 39 37 36 34 33 31 30 28
Wind_Direction
235 237 238 240 241 243 244 246 247 248 249 250 251 253 254 256 258 260 261 263 265 267 269 272 275 277 281 284 287 290 293 296 298 300 303 305 308 310 311 313 315 317 318
235 236 237 238 240 242 244 245 246 248 249 250 251 252 254 256 258 259 260 263 265 268 270 272 274 277 280 283 287 289 292 294 296 299 302 304 306 308 310 312 314 315 317
234 235 236 237 240 242 244 245 246 248 249 250 251 252 254 256 258 259 260 263 265 267 270 272 274 277 280 283 286 288 290 293 295 298 300 303 305 307 309 311 313 315 316
233 233 235 237 239 242 244 245 246 248 250 250 251 252 254 255 257 258 259 262 264 267 269 271 273 277 280 283 285 287 289 292 295 298 300 302 304 306 308 310 312 314 315
232 232 235 236 239 241 243 245 247 248 249 250 251 253 255 256 257 257 258 260 263 266 269 270 273 276 279 281 284 286 288 291 294 297 299 301 303 305 307 309 311 313 313
231 233 234 237 239 241 243 244 246 248 250 251 252 254 255 256 257 257 258 259 262 266 268 270 273 275 278 281 283 285 287 290 293 295 298 300 301 304 307 309 310 311 311
231 233 235 237 238 240 242 243 246 248 250 251 252 254 254 255 256 256 258 259 262 265 267 270 272 274 277 279 281 284 286 288 291 294 296 298 300 303 306 307 309 310 310
230 232 234 237 238 241 242 244 246 246 248 250 251 253 253 256 256 257 259 261 262 264 266 268 271 273 275 278 281 283 285 288 290 292 295 297 299 302 304 306 308 309 309
230 230 234 236 239 242 244 245 244 246 248 250 250 252 254 256 256 258 259 261 264 265 265 267 269 271 274 277 280 282 284 286 288 291 293 295 298 301 303 305 307 308 308
231 232 234 237 239 242 244 245 246 248 249 249 251 254 254 256 258 259 260 262 263 264 265 266 268 270 273 276 278 281 282 285 287 289 292 294 297 299 301 304 305 306 308
232 234 235 239 241 242 244 245 247 249 249 249 252 253 255 256 258 259 260 260 261 263 265 268 269 270 273 276 278 279 281 283 285 287 290 293 295 297 300 302 304 305 306
234 236 238 239 241 241 242 244 246 249 249 250 251 253 255 257 257 257 258 258 260 262 265 269 270 271 273 275 276 278 279 282 283 286 289 292 294 296 298 300 302 303 304
236 236 238 239 240 240 241 242 244 247 248 250 251 253 255 257 257 258 259 260 262 264 266 269 270 271 273 274 274 276 278 280 282 285 288 291 293 295 297 299 300 302 303
238 237 238 241 241 242 243 245 247 248 250 249 250 252 254 256 257 259 260 261 263 265 267 270 271 272 272 272 272 273 276 279 281 284 287 290 291 294 296 297 299 300 301
237 239 240 241 243 244 245 247 247 249 249 250 250 252 254 257 257 259 260 262 264 266 268 269 270 270 269 269 270 272 276 279 280 283 286 288 290 293 295 297 298 300 301
241 241 243 244 245 246 248 249 249 250 250 251 251 254 256 258 259 261 262 263 265 266 267 267 267 266 265 265 269 272 275 278 279 282 284 286 289 292 295 296 297 299 300
243 245 246 247 247 248 249 250 251 252 252 253 255 257 258 259 260 260 262 262 264 265 265 266 266 265 264 266 269 271 274 276 278 281 283 286 289 292 293 295 296 298 299
247 248 248 249 250 250 251 251 253 254 254 254 256 258 258 259 260 260 260 260 261 263 263 264 263 263 264 266 268 271 273 276 278 280 283 286 288 290 292 294 296 297 298
252 252 252 251 252 253 253 253 254 254 255 256 256 257 258 259 260 260 260 260 260 260 261 261 261 262 263 265 268 270 273 275 277 279 282 285 287 289 292 293 295 296 297
257 256 256 256 257 257 257 257 258 257 257 257 257 258 258 258 258 258 258 257 256 257 257 257 258 261 263 264 266 269 272 274 277 280 282 284 287 289 291 293 294 295 295
261 260 260 260 260 260 260 259 259 258 257 258 258 257 256 255 255 255 253 254 254 254 256 257 259 261 262 264 266 269 272 275 277 280 282 283 285 288 291 292 292 293 293
262 261 261 261 261 261 260 258 257 256 257 257 255 255 254 253 253 252 252 253 254 255 257 258 259 260 261 264 266 268 271 274 276 278 280 282 284 287 288 290 291 291 291
265 263 262 262 262 261 260 260 258 257 256 255 255 255 254 252 251 250 250 251 253 255 256 257 259 260 262 263 265 267 270 272 275 277 279 281 283 285 286 288 288 288 289
266 265 264 263 263 262 261 259 258 257 255 255 254 252 251 251 251 250 251 252 253 254 256 257 258 260 261 263 264 266 269 271 274 276 277 279 281 282 284 285 285 286 286
268 267 265 265 263 262 261 260 259 257 255 254 252 251 250 250 251 250 251 252 253 253 255 256 257 259 260 262 264 266 267 269 271 273 274 276 278 279 281 282 282 283 282
270 268 267 266 264 263 261 260 259 257 254 253 252 250 249 249 249 250 251 251 252 253 255 256 257 258 260 261 263 264 266 267 268 270 272 274 275 277 278 279 279 279 278
Height
5811 5815 5819 5822 5825 5828 5831 5833 5835 5837 5839 5841 5842 5843 5844 5845 5846 5846 5846 5847 5847 5847 5846 5846 5845 5844 5844 5843 5841 5840 5838 5837 5835 5833 5830 5828 5825 5823 5820 5817 5814 5811 5807
5803 5807 5811 5815 5818 5821 5824 5826 5829 5831 5833 5834 5836 5837 5838 5839 5840 5841 5841 5841 5841 5841 5841 5841 5840 5839 5838 5837 5836 5835 5833 5832 5830 5828 5826 5823 5820 5818 5815 5812 5809 5806 5802
5794 5798 5803 5807 5810 5813 5816 5819 5822 5824 5826 5828 5829 5831 5832 5833 5834 5835 5835 5835 5836 5836 5836 5835 5834 5834 5833 5832 5830 5829 5828 5826 5824 5822 5820 5818 5815 5813 5810 5807 5803 5800 5796
5785 5789 5794 5798 5802 5805 5808 5811 5814 5816 5819 5821 5822 5824 5825 5826 5827 5828 5829 5829 5830 5830 5829 5829 5828 5828 5827 5826 5824 5823 5822 5820 5819 5817 5814 5812 5810 5807 5804 5801 5798 5794 5790
5776 5780 5785 5789 5793 5796 5800 5803 5806 5808 5811 5813 5814 5816 5817 5819 5820 5821 5821 5822 5823 5823 5823 5822 5822 5821 5820 5819 5818 5817 5816 5814 5813 5811 5809 5806 5803 5801 5798 5795 5791 5787 5783
5766 5771 5776 5780 5784 5787 5791 5794 5797 5800 5802 5804 5806 5808 5810 5811 5812 5813 5814 5815 5815 5816 5816 5815 5815 5814 5813 5812 5811 5810 5809 5808 5806 5804 5802 5800 5797 5795 5792 5788 5784 5780 5776
5757 5762 5767 5771 5774 5778 5782 5785 5788 5791 5793 5795 5798 5800 5801 5803 5805 5805 5806 5807 5807 5808 5808 5808 5808 5807 5806 5805 5804 5803 5802 5801 5799 5798 5795 5793 5790 5788 5784 5781 5777 5773 5769
5748 5753 5757 5761 5765 5769 5772 5775 5778 5781 5784 5787 5789 5790 5793 5795 5796 5797 5798 5799 5799 5800 5800 5800 5800 5799 5799 5798 5797 5796 5795 5794 5792 5790 5788 5786 5783 5780 5777 5773 5769 5765 5761
5739 5744 5748 5752 5756 5760 5763 5766 5769 5772 5775 5777 5779 5782 5784 5786 5787 5788 5789 5790 5791 5792 5792 5792 5792 5792 5791 5790 5789 5788 5787 5786 5784 5783 5780 5778 5776 5772 5769 5765 5761 5757 5753
5730 5735 5739 5743 5747 5750 5754 5757 5760 5763 5765 5767 5770 5772 5774 5776 5777 5779 5780 5781 5782 5783 5783 5783 5783 5783 5783 5782 5781 5780 5779 5778 5776 5774 5772 5770 5767 5764 5761 5757 5753 5749 5744
5722 5726 5730 5734 5738 5741 5745 5748 5750 5753 5756 5758 5760 5762 5764 5766 5768 5769 5771 5772 5773 5774 5774 5774 5774 5774 5774 5773 5772 5772 5770 5769 5768 5766 5764 5761 5759 5756 5752 5748 5744 5740 5736
5714 5718 5722 5725 5729 5732 5735 5738 5741 5743 5746 5748 5750 5752 5754 5757 5758 5759 5761 5762 5763 5764 5765 5765 5765 5765 5764 5764 5763 5762 5761 5760 5759 5757 5755 5752 5749 5746 5743 5739 5735 5731 5727
5705 5709 5712 5716 5720 5723 5726 5728 5731 5734 5736 5738 5740 5742 5744 5746 5748 5749 5751 5752 5753 5754 5755 5755 5755 5755 5755 5754 5754 5753 5752 5751 5749 5748 5745 5743 5740 5737 5733 5730 5726 5722 5718
5697 5701 5704 5707 5710 5713 5716 5719 5721 5723 5726 5728 5730 5732 5734 5736 5737 5739 5741 5742 5743 5744 5745 5745 5745 5745 5744 5744 5744 5743 5742 5741 5740 5738 5736 5733 5731 5727 5724 5720 5716 5713 5709
5689 5692 5695 5698 5701 5704 5706 5708 5711 5713 5715 5717 5720 5722 5723 5725 5727 5728 5730 5731 5732 5733 5734 5734 5734 5734 5733 5733 5733 5733 5732 5731 5730 5728 5726 5724 5721 5718 5714 5710 5707 5703 5699
5681 5684 5687 5689 5691 5693 5696 5698 5701 5703 5704 5707 5709 5711 5713 5714 5716 5717 5718 5719 5720 5721 5722 5722 5722 5722 5722 5722 5722 5722 5721 5721 5719 5718 5716 5713 5711 5707 5704 5700 5697 5693 5689
5673 5675 5677 5679 5681 5683 5685 5688 5690 5691 5693 5695 5697 5699 5701 5702 5703 5705 5706 5707 5708 5708 5709 5710 5711 5711 5711 5711 5711 5711 5711 5710 5708 5707 5705 5703 5700 5697 5694 5691 5687 5684 5680
5663 5665 5667 5669 5671 5673 5675 5677 5678 5680 5682 5683 5685 5686 5688 5689 5690 5692 5693 5694 5695 5696 5697 5698 5699 5699 5700 5700 5700 5700 5699 5699 5697 5696 5694 5692 5690 5687 5684 5681 5677 5674 5670
5653 5655 5656 5658 5660 5661 5663 5665 5666 5668 5669 5670 5672 5673 5674 5676 5677 5678 5679 5681 5682 5683 5684 5685 5686 5687 5687 5688 5688 5688 5688 5687 5686 5685 5683 5681 5679 5676 5674 5671 5667 5664 5661
5643 5644 5645 5647 5648 5648 5649 5651 5653 5654 5655 5656 5658 5659 5660 5662 5663 5664 5666 5667 5668 5670 5671 5673 5674 5675 5675 5675 5676 5676 5676 5676 5675 5674 5672 5670 5668 5666 5663 5660 5658 5655 5652
5632 5632 5633 5634 5634 5635 5635 5636 5638 5639 5640 5642 5643 5644 5645 5647 5648 5650 5652 5653 5655 5657 5658 5659 5661 5662 5663 5664 5664 5664 5664 5664 5663 5662 5661 5660 5658 5656 5653 5651 5648 5646 5643
5618 5619 5619 5620 5620 5620 5621 5621 5622 5623 5625 5626 5627 5629 5630 5632 5634 5636 5637 5639 5641 5643 5645 5646 5648 5649 5650 5651 5652 5652 5653 5652 5652 5651 5650 5649 5647 5645 5643 5641 5639 5636 5634
5603 5603 5604 5604 5604 5604 5604 5605 5605 5606 5608 5609 5611 5613 5615 5617 5619 5621 5623 5625 5627 5629 5631 5633 5635 5636 5637 5639 5640 5640 5640 5640 5640 5639 5638 5637 5636 5635 5633 5631 5629 5628 5626
5586 5586 5586 5586 5586 5586 5586 5587 5587 5589 5591 5592 5594 5596 5598 5601 5603 5605 5608 5610 5613 5615 5617 5619 5621 5622 5624 5625 5626 5627 5628 5628 5628 5627 5627 5627 5625 5624 5623 5621 5620 5619 5617
5568 5567 5567 5567 5568 5568 5567 5568 5568 5570 5572 5574 5576 5579 5581 5584 5587 5589 5592 5595 5598 5600 5602 5605 5607 5609 5610 5612 5613 5615 5615 5616 5616 5616 5616 5616 5615 5614 5613 5612 5611 5610 5609
5548 5548 5547 5547 5547 5547 5547 5548 5549 5550 5553 5555 5558 5560 5563 5566 5569 5572 5575 5578 5582 5585 5587 5590 5593 5595 5597 5599 5600 5602 5603 5604 5604 5605 5604 5604 5604 5604 5603 5603 5602 5601 5600